GW3939 Weather Reports


time (UTC)temp
C
wind
direction
speed
KPH
gust
KPH
rain 1hr
cm
rain 24hr
cm
rain mn
cm
humidity
%
barometer
mb
20260906145523 22 127 0.0 4.8 0.00 0.00 0.00 84 1018.9
20260906145059 22 105 0.0 6.4 0.00 0.00 0.00 85 1018.9
20260906145001 22 72 0.0 6.4 0.00 0.00 0.00 85 1018.9
20260906144541 21 128 1.6 6.4 0.00 0.00 0.00 85 1018.9
20260906144017 21 158 1.6 4.8 0.00 0.00 0.00 84 1018.8
20260906143545 21 142 0.0 4.8 0.00 0.00 0.00 84 1018.7
20260906143020 21 146 1.6 9.7 0.00 0.00 0.00 84 1018.8
20260906142551 21 92 0.0 8.0 0.00 0.00 0.00 84 1018.7
20260906142027 21 41 1.6 6.4 0.00 0.00 0.00 85 1018.6
20260906141619 21 134 0.0 3.2 0.00 0.00 0.00 85 1018.7
20260906141039 21 143 0.0 8.0 0.00 0.00 0.00 86 1018.7
20260906140515 21 144 0.0 8.0 0.00 0.00 0.00 85 1018.8
20260906140050 21 37 0.0 4.8 0.00 0.00 0.00 85 1018.8
20260906135527 20 120 0.0 3.2 0.00 0.00 0.00 86 1018.8
20260906135004 20 84 0.0 6.4 0.00 0.00 0.00 87 1018.9
20260906134530 20 94 0.0 6.4 0.00 0.00 0.00 87 1018.7
20260906134007 20 108 1.6 6.4 0.00 0.00 0.00 86 1018.6
20260906133540 19 68 1.6 4.8 0.00 0.00 0.00 86 1018.7
20260906133031 19 68 1.6 6.4 0.00 0.00 0.00 87 1018.7
20260906132549 18 136 0.0 6.4 0.00 0.00 0.00 88 1018.8
20260906132022 18 79 0.0 6.4 0.00 0.00 0.00 88 1018.7
20260906131606 18 58 1.6 9.7 0.00 0.00 0.00 88 1018.8
20260906131034 18 20 3.2 9.7 0.00 0.00 0.00 88 1018.8
20260906130516 18 71 0.0 1.6 0.00 0.00 0.00 90 1018.7
20260906130058 18 77 0.0 4.8 0.00 0.00 0.00 90 1018.8
20260906125525 18 98 0.0 4.8 0.00 0.00 0.00 91 1018.7
20260906125055 17 326 0.0 4.8 0.00 0.00 0.00 92 1018.7
20260906124533 17 71 0.0 3.2 0.00 0.00 0.00 94 1018.6
20260906124047 17 31 0.0 0.0 0.00 0.00 0.00 95 1018.7
20260906123524 17 354 0.0 0.0 0.00 0.00 0.00 95 1018.5
20260906123014 16 89 0.0 0.0 0.00 0.00 0.00 95 1018.4
20260906122527 16 89 0.0 0.0 0.00 0.00 0.00 96 1018.4
20260906122005 16 94 0.0 1.6 0.00 0.00 0.00 96 1018.4
20260906121541 16 96 0.0 1.6 0.00 0.00 0.00 96 1018.3
20260906121019 16 64 0.0 1.6 0.00 0.00 0.00 96 1018.3
20260906120545 16 63 0.0 1.6 0.00 0.00 0.00 96 1018.3
20260906120022 16 36 0.0 0.0 0.00 0.00 0.00 96 1018.3
20260906115548 16 36 0.0 0.0 0.00 0.00 0.00 96 1018.2
20260906115017 16 36 0.0 0.0 0.00 0.00 0.00 96 1018.1
20260906114554 16 36 0.0 0.0 0.00 0.00 0.00 96 1018.2
20260906114012 16 36 0.0 0.0 0.00 0.00 0.00 96 1018.2
20260906113534 16 41 0.0 0.0 0.00 0.00 0.00 96 1018.1
20260906113011 16 41 0.0 0.0 0.00 0.00 0.00 96 1017.9
20260906112540 16 41 0.0 0.0 0.00 0.00 0.00 96 1017.8
20260906112018 16 41 0.0 0.0 0.00 0.00 0.00 96 1017.5
20260906111557 16 41 0.0 0.0 0.00 0.00 0.00 96 1017.4
20260906111505 16 41 0.0 0.0 0.00 0.00 0.00 96 1017.4
20260906111040 16 41 0.0 0.0 0.00 0.00 0.00 96 1017.4
20260906110559 16 41 0.0 0.0 0.00 0.00 0.00 96 1017.2
20260906110016 16 41 0.0 0.0 0.00 0.00 0.00 96 1017.3
20260906105548 16 41 0.0 0.0 0.00 0.00 0.00 96 1017.2
20260906105027 16 41 0.0 0.0 0.00 0.00 0.00 96 1017.3
20260906104507 16 41 0.0 0.0 0.00 0.00 0.00 96 1017.3
20260906104048 16 41 0.0 0.0 0.00 0.00 0.00 95 1017.2
20260906103514 16 41 0.0 0.0 0.00 0.00 0.00 96 1017.4
20260906103048 16 41 0.0 0.0 0.00 0.00 0.00 95 1017.3
20260906102523 16 41 0.0 0.0 0.00 0.00 0.00 95 1017.3
20260906102058 16 41 0.0 0.0 0.00 0.00 0.00 95 1017.2
20260906102008 16 41 0.0 0.0 0.00 0.00 0.00 95 1017.2
20260906101542 16 41 0.0 0.0 0.00 0.00 0.00 95 1017.1
20260906101002 16 41 0.0 0.0 0.00 0.00 0.00 95 1017.1
20260906100528 16 41 0.0 0.0 0.00 0.00 0.00 95 1017.0
20260906100100 16 41 0.0 0.0 0.00 0.00 0.00 95 1017.0
20260906100004 16 41 0.0 0.0 0.00 0.00 0.00 95 1017.1
20260906095542 16 41 0.0 0.0 0.00 0.00 0.00 96 1017.1
20260906095022 16 41 0.0 0.0 0.00 0.00 0.00 95 1017.1
20260906094602 16 41 0.0 0.0 0.00 0.00 0.00 96 1017.1
20260906094040 16 41 0.0 0.0 0.00 0.00 0.00 96 1017.1
20260906093519 16 41 0.0 0.0 0.00 0.00 0.00 96 1017.2
20260906093043 16 41 0.0 0.0 0.00 0.00 0.00 95 1017.2
20260906092522 16 41 0.0 0.0 0.00 0.00 0.00 96 1017.3
20260906092048 16 41 0.0 0.0 0.00 0.00 0.00 95 1017.3
20260906091532 16 41 0.0 0.0 0.00 0.00 0.00 95 1017.2
20260906091016 16 41 0.0 0.0 0.00 0.00 0.00 95 1017.1
20260906090535 16 41 0.0 0.0 0.00 0.00 0.00 95 1017.2
20260906090004 16 41 0.0 0.0 0.00 0.00 0.00 95 1017.2
20260906085526 16 41 0.0 0.0 0.00 0.00 0.00 95 1017.1
20260906085004 16 41 0.0 0.0 0.00 0.00 0.00 95 1017.1
20260906084542 16 41 0.0 0.0 0.00 0.00 0.00 95 1017.1
20260906084030 16 41 0.0 0.0 0.00 0.00 0.00 95 1017.1
20260906083550 16 41 0.0 0.0 0.00 0.00 0.00 95 1017.2
20260906083010 16 41 0.0 0.0 0.00 0.00 0.00 95 1017.0
20260906082536 16 41 0.0 0.0 0.00 0.00 0.00 95 1016.9
20260906082051 16 41 0.0 0.0 0.00 0.00 0.00 95 1016.7
20260906081531 16 41 0.0 0.0 0.00 0.00 0.00 95 1016.8
20260906081021 16 41 0.0 0.0 0.00 0.00 0.00 95 1016.8
20260906080541 16 41 0.0 0.0 0.00 0.00 0.00 95 1016.8
20260906080059 16 41 0.0 0.0 0.00 0.00 0.00 95 1016.8
20260906075522 16 41 0.0 0.0 0.00 0.00 0.00 95 1016.7
20260906075058 16 41 0.0 0.0 0.00 0.00 0.00 95 1016.8
20260906074522 17 41 0.0 0.0 0.00 0.00 0.00 95 1016.8
20260906074057 17 41 0.0 0.0 0.00 0.00 0.00 95 1016.8
20260906073538 17 41 0.0 0.0 0.00 0.00 0.00 95 1016.8
20260906073018 17 41 0.0 0.0 0.00 0.00 0.00 95 1016.7
20260906072540 17 41 0.0 0.0 0.00 0.00 0.00 94 1016.9
20260906072019 17 41 0.0 0.0 0.00 0.00 0.00 94 1016.9
20260906071542 17 41 0.0 0.0 0.00 0.00 0.00 94 1016.8
20260906071009 17 41 0.0 0.0 0.00 0.00 0.00 94 1017.0
20260906070546 17 41 0.0 0.0 0.00 0.00 0.00 94 1017.0
20260906070018 17 41 0.0 0.0 0.00 0.00 0.00 95 1017.1
20260906065545 17 41 0.0 0.0 0.00 0.00 0.00 94 1017.2
20260906065022 17 41 0.0 0.0 0.00 0.00 0.00 94 1017.0
20260906064544 17 41 0.0 0.0 0.00 0.00 0.00 94 1017.1
20260906064004 17 41 0.0 0.0 0.00 0.00 0.00 94 1017.1
20260906063541 17 41 0.0 0.0 0.00 0.00 0.00 94 1017.1
20260906063006 17 41 0.0 0.0 0.00 0.00 0.00 94 1017.2
20260906062534 17 41 0.0 0.0 0.00 0.00 0.00 94 1017.2
20260906062050 17 41 0.0 0.0 0.00 0.00 0.00 94 1017.2
20260906061532 17 41 0.0 0.0 0.00 0.00 0.00 94 1017.2
20260906061100 17 41 0.0 0.0 0.00 0.00 0.00 94 1017.3
20260906061003 17 41 0.0 0.0 0.00 0.00 0.00 94 1017.2
20260906060520 17 41 0.0 0.0 0.00 0.00 0.00 94 1017.2
20260906060052 17 41 0.0 0.0 0.00 0.00 0.00 94 1017.1
20260906055525 17 41 0.0 0.0 0.00 0.00 0.00 93 1017.1
20260906055047 17 41 0.0 0.0 0.00 0.00 0.00 93 1017.1
20260906054508 18 41 0.0 0.0 0.00 0.00 0.00 93 1017.0
20260906054032 18 41 0.0 0.0 0.00 0.00 0.00 93 1017.0
20260906053547 18 41 0.0 0.0 0.00 0.00 0.00 93 1017.0
20260906053032 18 41 0.0 0.0 0.00 0.00 0.00 93 1017.0
20260906052548 18 41 0.0 0.0 0.00 0.00 0.00 92 1016.9
20260906052008 18 41 0.0 0.0 0.00 0.00 0.00 92 1016.9
20260906051545 18 41 0.0 0.0 0.00 0.00 0.00 92 1017.0
20260906051024 18 41 0.0 0.0 0.00 0.00 0.00 92 1017.0
20260906050557 18 41 0.0 0.0 0.00 0.00 0.00 92 1016.9
20260906050028 18 41 0.0 0.0 0.00 0.00 0.00 92 1016.7
20260906045557 18 45 0.0 3.2 0.00 0.00 0.00 92 1016.7
20260906045017 18 45 0.0 1.6 0.00 0.00 0.00 92 1016.7
20260906044544 18 20 0.0 0.0 0.00 0.00 0.00 92 1016.8
20260906044023 18 345 0.0 0.0 0.00 0.00 0.00 92 1016.7
20260906043544 18 345 0.0 0.0 0.00 0.00 0.00 92 1016.7
20260906043100 19 345 0.0 1.6 0.00 0.00 0.00 91 1016.7
20260906043021 19 345 0.0 1.6 0.00 0.00 0.00 91 1016.8
20260906042533 19 344 0.0 1.6 0.00 0.00 0.00 91 1016.8
20260906042012 19 82 0.0 0.0 0.00 0.00 0.00 91 1016.7
20260906041536 19 82 0.0 0.0 0.00 0.00 0.00 90 1016.6
20260906041053 19 82 0.0 0.0 0.00 0.00 0.00 90 1016.5
20260906040528 20 82 0.0 0.0 0.00 0.00 0.00 90 1016.4
20260906040058 20 82 0.0 1.6 0.00 0.00 0.00 90 1016.3
20260906040005 20 82 0.0 1.6 0.00 0.00 0.00 90 1016.3
20260906035544 20 89 0.0 3.2 0.00 0.00 0.00 90 1016.2
20260906035014 20 98 0.0 3.2 0.00 0.00 0.00 91 1016.1
20260906034600 20 133 0.0 3.2 0.00 0.00 0.00 90 1016.2
20260906034025 20 111 0.0 1.6 0.00 0.00 0.00 90 1016.2
20260906033600 20 70 0.0 6.4 0.00 0.00 0.00 90 1016.3
20260906033501 20 70 0.0 6.4 0.00 0.00 0.00 90 1016.3
20260906033020 20 65 0.0 6.4 0.00 0.00 0.00 90 1016.3
20260906032541 20 136 0.0 3.2 0.00 0.00 0.00 89 1016.3
20260906032020 20 129 0.0 3.2 0.00 0.00 0.00 89 1016.3
20260906031541 20 55 0.0 3.2 0.00 0.00 0.00 89 1016.2
20260906031024 20 112 0.0 1.6 0.00 0.00 0.00 88 1016.2
20260906030600 21 81 0.0 4.8 0.00 0.00 0.00 88 1016.2
20260906030503 21 81 0.0 4.8 0.00 0.00 0.00 88 1016.2
20260906030041 21 101 0.0 4.8 0.00 0.00 0.00 88 1016.1
20260906025558 21 51 0.0 3.2 0.00 0.00 0.00 88 1016.1
20260906025043 21 72 0.0 8.0 0.00 0.00 0.00 88 1015.9
20260906024603 21 87 1.6 8.0 0.00 0.00 0.00 88 1016.0
20260906024024 21 48 0.0 3.2 0.00 0.00 0.00 88 1015.9
20260906023558 21 117 0.0 3.2 0.00 0.00 0.00 87 1015.7
20260906023028 21 124 0.0 6.4 0.00 0.00 0.00 87 1015.7
20260906022556 21 38 0.0 8.0 0.00 0.00 0.00 87 1015.6
20260906022030 21 54 1.6 8.0 0.00 0.00 0.00 87 1015.5
20260906021602 21 137 1.6 14.5 0.00 0.00 0.00 86 1015.6
20260906021508 21 124 1.6 14.5 0.00 0.00 0.00 86 1015.6
20260906021042 22 108 3.2 14.5 0.00 0.00 0.00 86 1015.5
20260906020516 22 84 0.0 8.0 0.00 0.00 0.00 86 1015.3
20260906020053 22 160 1.6 8.0 0.00 0.00 0.00 86 1015.3
20260906015519 22 77 0.0 9.7 0.00 0.00 0.00 86 1015.1
20260906015052 22 60 3.2 9.7 0.00 0.00 0.00 86 1015.0
20260906014516 22 113 1.6 9.7 0.00 0.00 0.00 86 1014.9
20260906014043 22 104 0.0 6.4 0.00 0.00 0.00 86 1014.9
20260906013525 22 97 0.0 8.0 0.00 0.00 0.00 86 1014.7
20260906013055 22 59 1.6 8.0 0.00 0.00 0.00 86 1014.8
20260906012537 22 55 1.6 4.8 0.00 0.00 0.00 86 1014.7
20260906012008 22 100 0.0 4.8 0.00 0.00 0.00 86 1014.7
20260906011540 22 92 0.0 6.4 0.00 0.00 0.00 85 1014.6
20260906011018 22 56 0.0 4.8 0.00 0.00 0.00 85 1014.6
20260906010551 22 73 0.0 4.8 0.00 0.00 0.00 85 1014.6
20260906010037 22 82 0.0 4.8 0.00 0.00 0.00 85 1014.6
20260906005551 22 70 0.0 4.8 0.00 0.00 0.00 85 1014.8
20260906005038 22 49 0.0 3.2 0.00 0.00 0.00 85 1014.7
20260906004608 22 46 0.0 3.2 0.00 0.00 0.00 85 1014.8
20260906004035 22 77 0.0 1.6 0.00 0.00 0.00 84 1014.7
20260906003550 23 61 0.0 1.6 0.00 0.00 0.00 84 1014.8
20260906003010 23 61 0.0 3.2 0.00 0.00 0.00 83 1014.8
20260906002532 23 61 0.0 3.2 0.00 0.00 0.00 83 1015.0
20260906002012 23 62 0.0 3.2 0.00 0.00 0.00 83 1014.9
20260906001546 23 82 0.0 3.2 0.00 0.00 0.00 83 1014.8
20260906001009 23 93 0.0 6.4 0.00 0.00 0.00 82 1014.8
20260906000531 23 131 1.6 6.4 0.00 0.00 0.00 82 1014.8
20260906000014 23 20 1.6 4.8 0.00 0.00 0.00 82 1014.8
20260905235553 23 72 0.0 4.8 0.00 0.00 0.00 81 1014.9
20260905235033 23 78 0.0 4.8 0.00 0.00 0.00 81 1014.8
20260905234514 24 75 0.0 8.0 0.00 0.00 0.00 80 1014.8
20260905234052 24 142 0.0 12.9 0.00 0.00 0.00 79 1014.8
20260905233534 24 56 0.0 12.9 0.00 0.00 0.00 78 1014.9
20260905233015 25 78 0.0 14.5 0.00 0.00 0.00 78 1014.9
20260905232551 25 94 0.0 14.5 0.00 0.00 0.00 77 1014.8
20260905232029 25 94 0.0 6.4 0.00 0.00 0.00 77 1014.8
20260905231513 25 39 1.6 6.4 0.00 0.00 0.00 76 1014.8
20260905231031 25 73 1.6 8.0 0.00 0.00 0.00 76 1014.8
20260905230505 25 20 0.0 6.4 0.00 0.00 0.00 75 1014.7
20260905230045 25 42 0.0 9.7 0.00 0.00 0.00 75 1014.7
20260905225559 25 36 0.0 12.9 0.00 0.00 0.00 74 1014.8
20260905225501 25 358 0.0 12.9 0.00 0.00 0.00 73 1014.8
20260905225041 25 34 3.2 12.9 0.00 0.00 0.00 72 1014.7
20260905224512 26 37 1.6 6.4 0.00 0.00 0.00 74 1014.8
20260905224033 26 101 0.0 6.4 0.00 0.00 0.00 76 1014.7
20260905223511 26 3 1.6 8.0 0.00 0.00 0.00 75 1014.7
20260905223054 26 94 1.6 12.9 0.00 0.00 0.00 75 1014.6
20260905222509 26 55 4.8 12.9 0.00 0.00 0.00 75 1014.7
20260905222045 26 112 3.2 11.3 0.00 0.00 0.00 73 1014.7
20260905221524 26 326 1.6 12.9 0.00 0.00 0.00 73 1014.5
20260905221045 26 20 3.2 11.3 0.00 0.00 0.00 74 1014.3
20260905220524 26 47 1.6 11.3 0.00 0.00 0.00 74 1014.2
20260905220011 26 32 4.8 11.3 0.00 0.00 0.00 73 1014.2
20260905215547 26 19 4.8 11.3 0.00 0.00 0.00 74 1014.2
20260905215014 26 354 0.0 11.3 0.00 0.00 0.00 74 1014.2
20260905214544 26 33 3.2 12.9 0.00 0.00 0.00 74 1014.3
20260905214035 26 53 3.2 12.9 0.00 0.00 0.00 75 1014.4
20260905213513 26 79 0.0 6.4 0.00 0.00 0.00 76 1014.4
20260905213039 25 109 0.0 8.0 0.00 0.00 0.00 77 1014.4
20260905212521 25 49 1.6 8.0 0.00 0.00 0.00 76 1014.4
20260905212039 25 49 0.0 4.8 0.00 0.00 0.00 76 1014.5
20260905211606 26 330 1.6 6.4 0.00 0.00 0.00 75 1014.4
20260905211039 26 322 1.6 6.4 0.00 0.00 0.00 75 1014.4
20260905210559 26 84 0.0 6.4 0.00 0.00 0.00 74 1014.4
20260905210501 26 99 1.6 8.0 0.00 0.00 0.00 75 1014.4
20260905210033 26 56 0.0 8.0 0.00 0.00 0.00 74 1014.4
20260905205603 26 50 1.6 8.0 0.00 0.00 0.00 73 1014.5
20260905205501 26 44 0.0 4.8 0.00 0.00 0.00 73 1014.6
20260905205019 26 101 0.0 8.0 0.00 0.00 0.00 73 1014.6
20260905204541 26 84 1.6 8.0 0.00 0.00 0.00 73 1014.6
20260905204020 26 88 0.0 9.7 0.00 0.00 0.00 73 1014.6
20260905203539 26 46 1.6 9.7 0.00 0.00 0.00 72 1014.6
20260905203057 26 146 0.0 6.4 0.00 0.00 0.00 73 1014.6
20260905202534 26 89 3.2 9.7 0.00 0.00 0.00 72 1014.5
20260905202005 26 70 0.0 11.3 0.00 0.00 0.00 72 1014.5
20260905201537 26 51 4.8 16.1 0.00 0.00 0.00 70 1014.4
20260905201009 26 306 4.8 16.1 0.00 0.00 0.00 70 1014.4
20260905200543 26 2 3.2 11.3 0.00 0.00 0.00 69 1014.3
20260905200023 27 110 4.8 11.3 0.00 0.00 0.00 71 1014.4
20260905195549 26 185 1.6 14.5 0.00 0.00 0.00 73 1014.4
20260905195035 26 359 4.8 16.1 0.00 0.00 0.00 74 1014.4
20260905194601 26 60 4.8 16.1 0.00 0.00 0.00 74 1014.5
20260905194502 26 25 4.8 16.1 0.00 0.00 0.00 74 1014.6
20260905194037 26 115 4.8 14.5 0.00 0.00 0.00 74 1014.6
20260905193513 26 40 4.8 19.3 0.00 0.00 0.00 75 1014.7
20260905193049 26 125 4.8 19.3 0.00 0.00 0.00 74 1014.6
20260905192511 26 40 3.2 12.9 0.00 0.00 0.00 77 1014.6
20260905192034 26 335 6.4 17.7 0.00 0.00 0.00 78 1014.6
20260905191507 26 352 4.8 17.7 0.00 0.00 0.00 77 1014.6
20260905191043 26 93 1.6 11.3 0.00 0.00 0.00 77 1014.7
20260905190558 26 354 3.2 12.9 0.00 0.00 0.00 77 1014.6
20260905190501 26 133 1.6 12.9 0.00 0.00 0.00 78 1014.6
20260905190026 25 36 4.8 19.3 0.00 0.03 0.00 77 1014.8
20260905185600 26 58 6.4 19.3 0.00 0.03 0.00 77 1014.8
20260905185502 26 75 4.8 19.3 0.00 0.03 0.00 76 1014.8
20260905185041 26 25 3.2 14.5 0.00 0.03 0.00 76 1014.7
20260905184534 26 62 3.2 12.9 0.00 0.03 0.00 79 1014.6
20260905184046 25 95 4.8 12.9 0.00 0.03 0.00 78 1014.9
20260905183523 25 11 1.6 11.3 0.00 0.03 0.00 79 1014.9
20260905183051 25 70 1.6 11.3 0.00 0.03 0.00 80 1014.9
20260905182530 25 96 3.2 11.3 0.00 0.03 0.00 79 1015.1
20260905182009 25 70 1.6 11.3 0.00 0.03 0.00 80 1015.0
20260905181547 25 349 0.0 6.4 0.00 0.03 0.00 81 1015.0
20260905181011 24 51 1.6 11.3 0.00 0.03 0.00 82 1015.1
20260905180543 24 105 0.0 11.3 0.00 0.03 0.00 83 1015.1
20260905180007 24 29 0.0 12.9 0.00 0.03 0.00 84 1015.3
20260905175543 24 41 1.6 12.9 0.00 0.03 0.00 83 1015.2
20260905175003 24 17 0.0 8.0 0.00 0.03 0.00 84 1015.2
20260905174544 23 40 1.6 8.0 0.00 0.03 0.00 83 1015.3
20260905174006 23 91 0.0 6.4 0.00 0.03 0.00 83 1015.3
20260905173525 23 32 1.6 6.4 0.00 0.03 0.00 84 1015.3
20260905173003 23 72 1.6 12.9 0.00 0.03 0.00 84 1015.4
20260905172544 23 359 0.0 12.9 0.00 0.03 0.00 84 1015.4
20260905172003 23 63 0.0 11.3 0.00 0.03 0.00 85 1015.4
20260905171543 23 54 3.2 11.3 0.00 0.03 0.00 85 1015.3
20260905171011 23 60 3.2 12.9 0.00 0.03 0.00 85 1015.4
20260905170545 23 78 4.8 12.9 0.00 0.03 0.00 85 1015.4
20260905170005 23 256 1.6 12.9 0.00 0.03 0.00 85 1015.3
20260905165526 23 110 1.6 12.9 0.00 0.03 0.00 86 1015.4
20260905165008 22 343 1.6 11.3 0.00 0.03 0.00 87 1015.5
20260905164530 22 51 1.6 9.7 0.00 0.03 0.00 87 1015.5
20260905164045 22 62 3.2 9.7 0.00 0.03 0.00 87 1015.5
20260905163524 23 115 0.0 4.8 0.00 0.03 0.00 87 1015.5
20260905163043 23 25 0.0 4.8 0.00 0.03 0.00 87 1015.5
20260905162521 23 72 0.0 8.0 0.00 0.03 0.00 87 1015.4
20260905162042 22 119 0.0 8.0 0.00 0.03 0.00 88 1015.5
20260905161600 22 72 1.6 8.0 0.00 0.03 0.00 88 1015.5
20260905161509 22 65 1.6 8.0 0.00 0.03 0.00 87 1015.5
20260905161043 22 34 0.0 9.7 0.00 0.03 0.00 88 1015.5
20260905160518 22 120 1.6 8.0 0.00 0.03 0.00 87 1015.4
20260905160041 23 122 1.6 8.0 0.00 0.08 0.00 88 1015.4
20260905155519 22 94 0.0 8.0 0.00 0.08 0.00 88 1015.3
20260905155041 22 67 0.0 12.9 0.00 0.08 0.00 89 1015.3
20260905154604 22 7 0.0 4.8 0.00 0.08 0.00 89 1015.2
20260905154040 22 37 0.0 9.7 0.00 0.08 0.00 90 1015.2
20260905153601 22 46 3.2 9.7 0.00 0.08 0.00 89 1015.3
20260905153041 22 114 1.6 8.0 0.00 0.08 0.00 89 1015.2
20260905152601 22 70 1.6 6.4 0.00 0.08 0.00 90 1015.2
20260905152500 22 94 1.6 6.4 0.00 0.08 0.00 90 1015.2
20260905152041 22 51 1.6 6.4 0.00 0.08 0.00 90 1015.2
20260905151519 22 102 0.0 6.4 0.00 0.08 0.00 91 1015.2
20260905151041 22 11 0.0 8.0 0.00 0.08 0.00 91 1015.1
20260905150600 22 30 1.6 9.7 0.00 0.08 0.00 91 1015.0
20260905150511 22 37 1.6 9.7 0.00 0.08 0.00 91 1015.0
20260905150046 22 22 3.2 9.7 0.00 0.08 0.00 90 1015.0